Regional Weather Roundup
Issued by NWS Cleveland, OH

Home | Current Version | Previous Version | Graphics & Text | Print | Product List | Glossary On
Versions: 1 2 3 4 5 6 7 8 9 10 11 12 13 14 15 16 17 18 19 20 21 22 23 24 25 26 27 28 29 30 31 32 33 34 35 36 37 38 39 40 41 42 43 44 45 46 47 48 49 50
000
ASUS41 KCLE 181310
RWRCLE
OHIO REGIONAL WEATHER ROUNDUP
NATIONAL WEATHER SERVICE WILMINGTON, OH
900 AM EDT WED OCT 18 2017

NOTE: "FAIR" INDICATES FEW OR NO CLOUDS BELOW 12,000 FEET WITH NO
SIGNIFICANT WEATHER AND/OR OBSTRUCTIONS TO VISIBILITY.

OHZ001>008-015>018-024>027-034-035-043-044-181400-
   NORTHWEST OHIO

CITY           SKY/WX    TMP DP  RH WIND       PRES   REMARKS
DEFIANCE       FAIR      45  39  79 S5        30.27S
FINDLAY        FAIR      47  41  80 S7        30.28S
TOLEDO EXPRESS FAIR      45  43  93 CALM      30.27S
TOLEDO EXEC    FAIR      49  41  74 S8        30.28S
LIMA           FAIR      47  41  80 S8        30.29S
$$

OHZ009>014-019>023-028>033-038-089-181400-
   NORTHEAST OHIO

CITY           SKY/WX    TMP DP  RH WIND       PRES   REMARKS
CLE-HOPKINS    FAIR      51  41  68 S7        30.33R
CLE-LAKEFRONT  FAIR      52  40  63 S9        30.30R
CUY CO. ARPT   SUNNY     54  41  62 SE6       30.32R
LORAIN-ELYRIA  FAIR      48  39  71 S6        30.32R
ASHTABULA      FAIR      48  42  80 S5        30.33R
AKRON-CANTON   FAIR      48  41  76 S6        30.34R
WOOSTER        FAIR      46  43  89 CALM      30.34R
MANSFIELD      FAIR      48  43  82 SE3       30.32R
YOUNGSTOWN     FAIR      49  40  71 S6        30.33R
$$

OHZ042-051>053-060>062-070>072-077>081-181400-
  SOUTHWEST OHIO

CITY           SKY/WX    TMP DP  RH WIND       PRES   REMARKS
CINC-COVINGTON FAIR      47  43  86 SE5       30.32R
CINC-LUNKEN    FAIR      42  42 100 CALM      30.35R FOG
HAMILTON       FAIR      42  42 100 E3        30.34R
DAYTON         FAIR      46  44  93 SE6       30.33R
WRIGHT-PAT AFB SUNNY     43  42  94 SE3       30.32R
DAYTON GENERAL FAIR      48  41  76 S6        30.32R
WILMINGTON     FAIR      48  42  80 SE5       30.33R
$$

OHZ036-037-039>041-045>050-054>059-063>069-073>076-082>088-181400-
  CENTRAL AND SOUTHEAST OHIO

CITY           SKY/WX    TMP DP  RH WIND       PRES   REMARKS
COLUMBUS       FAIR      46  42  86 CALM      30.33R
OSU AIRPORT    FAIR      47  44  90 S7        30.33R
BOLTON FIELD   SUNNY     41  41 100 CALM      30.34R
RICKENBACK AFB FAIR      41  41  98 CALM      30.34R
NEWARK         FAIR      43  41  93 CALM      30.34R
MARION         FAIR      46  40  79 S7        30.32R
LANCASTER      FAIR      43  42  97 S3        30.34R
ZANESVILLE     FAIR      42  39  89 CALM      30.35R
NEW PHILLY     FAIR      44  42  93 SE3       30.36R
$$



USA.gov is the U.S. government's official web portal to all federal, state and local government web resources and services.